Weather History for Red Wing, MN

Change the Weather History Date:

Monday, October 21, 2013

  Actual Average Record
Temperature  
Mean Temperature 32 °F -  
Max Temperature 39 °F 54 °F 71 °F (1999)
Min Temperature 26 °F 37 °F 26 °F (2008)
Degree Days  
Heating Degree Days 32    
Moisture  
Dew Point 24 °F    
Average Humidity 63    
Maximum Humidity 93    
Minimum Humidity 48    
Precipitation  
Precipitation 0.00 in - - ()
Sea Level Pressure  
Sea Level Pressure 29.92 in    
Wind  
Wind Speed 9 mph (WNW)    
Max Wind Speed 17 mph    
Max Gust Speed 24 mph    
Visibility 10 miles    
Events Snow    
Averages and records for this station are not official NWS values.
T = Trace of Precipitation, MM = Missing Value Source: NWS Daily Summary

Daily Weather History Graph

Daily Weather History Graph

Search for Another Location

Airport:

Trip Planner

Search our weather history database for the weather conditions in past years. The results will help you decide how hot, cold, wet, or windy it might be!

Date:

Astronomy

Oct. 21, 2013 Rise Set
Actual Time 7:33 AM CDT 6:15 PM CDT
Civil Twilight 7:03 AM CDT 6:44 PM CDT
Nautical Twilight 6:29 AM CDT 7:18 PM CDT
Astronomical Twilight 5:55 AM CDT 7:52 PM CDT
Moon 8:02 PM CDT (10/21) 10:14 AM CDT (10/21)
Length of Visible Light 11h 41m
Length of Day
10h 41m
Waning Gibbous, 92% of the Moon is Illuminated
Oct 21
Waning Gibbous
Oct 26
Last Quarter
Nov 3
New
Nov 9
First Quarter
Nov 17
Full

Hourly Weather History & Observations

Time (CDT) Temp. Windchill Dew Point Humidity Pressure Visibility Wind Dir Wind Speed Gust Speed Precip Events Conditions
12:15 AM 39.2 °F 33.6 °F 33.8 °F 81% 29.84 in 10.0 mi NW 8.1 mph 16.1 mph N/A   Overcast
12:35 AM 39.2 °F 32.5 °F 33.8 °F 81% 29.84 in 10.0 mi WNW 10.4 mph 17.3 mph N/A   Overcast
12:55 AM 39.2 °F 31.6 °F 33.8 °F 81% 29.85 in 10.0 mi NW 12.7 mph 17.3 mph N/A   Overcast
1:15 AM 39.2 °F 32.0 °F 33.8 °F 81% 29.86 in 10.0 mi NW 11.5 mph 17.3 mph N/A   Overcast
1:35 AM 39.2 °F 32.0 °F 32.0 °F 75% 29.86 in 7.0 mi NNW 11.5 mph 20.7 mph N/A   Overcast
1:54 AM 39.2 °F 33.6 °F 32.0 °F 75% 29.87 in 10.0 mi NW 8.1 mph 19.6 mph N/A   Overcast
2:15 AM 39.2 °F 31.6 °F 30.2 °F 70% 29.88 in 10.0 mi NW 12.7 mph 19.6 mph N/A   Overcast
2:35 AM 39.2 °F 34.2 °F 30.2 °F 70% 29.88 in 10.0 mi NW 6.9 mph - N/A   Overcast
2:54 AM 37.4 °F 29.3 °F 28.4 °F 70% 29.88 in 10.0 mi NW 12.7 mph 21.9 mph N/A   Overcast
3:15 AM 37.4 °F 30.3 °F 28.4 °F 70% 29.89 in 10.0 mi NNW 10.4 mph - N/A   Overcast
3:35 AM 37.4 °F 29.3 °F 28.4 °F 70% 29.89 in 10.0 mi NW 12.7 mph 23.0 mph N/A   Overcast
3:54 AM 35.6 °F 28.6 °F 26.6 °F 70% 29.90 in 10.0 mi NW 9.2 mph 19.6 mph N/A   Overcast
4:15 AM 35.6 °F 27.5 °F 24.8 °F 65% 29.90 in 10.0 mi NW 11.5 mph 17.3 mph N/A   Mostly Cloudy
4:35 AM 35.6 °F 27.1 °F 24.8 °F 65% 29.91 in 10.0 mi WNW 12.7 mph - N/A   Mostly Cloudy
4:55 AM 35.6 °F 28.6 °F 24.8 °F 65% 29.91 in 10.0 mi NW 9.2 mph 16.1 mph N/A   Overcast
5:15 AM 35.6 °F 28.0 °F 23.0 °F 60% 29.91 in 10.0 mi NW 10.4 mph - N/A   Overcast
5:35 AM 35.6 °F 28.6 °F 23.0 °F 60% 29.92 in 10.0 mi NW 9.2 mph - N/A   Overcast
5:55 AM 35.6 °F 28.6 °F 21.2 °F 56% 29.92 in 10.0 mi NW 9.2 mph 16.1 mph N/A   Overcast
6:15 AM 35.6 °F 28.6 °F 21.2 °F 56% 29.92 in 10.0 mi NW 9.2 mph - N/A   Overcast
6:35 AM 35.6 °F 28.6 °F 21.2 °F 56% 29.92 in 10.0 mi NW 9.2 mph 18.4 mph N/A   Overcast
6:55 AM 35.6 °F 28.0 °F 21.2 °F 56% 29.92 in 10.0 mi NW 10.4 mph 17.3 mph N/A   Overcast
7:15 AM 35.6 °F 27.5 °F 19.4 °F 52% 29.92 in 10.0 mi NW 11.5 mph 16.1 mph N/A   Overcast
7:35 AM 35.6 °F 28.0 °F 19.4 °F 52% 29.93 in 10.0 mi NW 10.4 mph 20.7 mph N/A   Overcast
7:55 AM 35.6 °F 28.0 °F 19.4 °F 52% 29.93 in 10.0 mi NW 10.4 mph 18.4 mph N/A   Overcast
8:15 AM 35.6 °F 28.0 °F 19.4 °F 52% 29.94 in 10.0 mi NW 10.4 mph 18.4 mph N/A   Overcast
8:35 AM 35.6 °F 29.9 °F 19.4 °F 52% 29.94 in 10.0 mi NW 6.9 mph 19.6 mph N/A   Overcast
8:55 AM 35.6 °F 28.6 °F 19.4 °F 52% 29.94 in 10.0 mi WNW 9.2 mph - N/A   Overcast
9:15 AM 35.6 °F 29.2 °F 19.4 °F 52% 29.95 in 10.0 mi NW 8.1 mph - N/A   Overcast
9:34 AM 35.6 °F 28.6 °F 19.4 °F 52% 29.95 in 10.0 mi NW 9.2 mph - N/A   Overcast
9:55 AM 35.6 °F 29.2 °F 21.2 °F 56% 29.95 in 10.0 mi NW 8.1 mph 16.1 mph N/A   Overcast
10:15 AM 35.6 °F 29.9 °F 21.2 °F 56% 29.95 in 10.0 mi NW 6.9 mph - N/A   Overcast
10:34 AM 35.6 °F 28.0 °F 21.2 °F 56% 29.94 in 10.0 mi West 10.4 mph - N/A   Overcast
10:55 AM 35.6 °F 29.2 °F 21.2 °F 56% 29.94 in 10.0 mi West 8.1 mph - N/A   Overcast
11:15 AM 35.6 °F 27.5 °F 21.2 °F 56% 29.94 in 10.0 mi WNW 11.5 mph - N/A   Overcast
11:35 AM 35.6 °F 28.6 °F 24.8 °F 65% 29.94 in 10.0 mi WNW 9.2 mph - N/A   Overcast
11:55 AM 35.6 °F 28.6 °F 24.8 °F 65% 29.94 in 10.0 mi WNW 9.2 mph - N/A   Overcast
12:15 PM 35.6 °F 29.2 °F 24.8 °F 65% 29.95 in 7.0 mi NW 8.1 mph 18.4 mph N/A Snow Light Snow
12:35 PM 35.6 °F 29.2 °F 24.8 °F 65% 29.94 in 10.0 mi NW 8.1 mph - N/A   Overcast
12:55 PM 35.6 °F 29.2 °F 24.8 °F 65% 29.93 in 10.0 mi NW 8.1 mph - N/A   Overcast
1:15 PM 37.4 °F 32.1 °F 24.8 °F 60% 29.93 in 10.0 mi WNW 6.9 mph - N/A   Overcast
1:35 PM 37.4 °F 29.3 °F 23.0 °F 56% 29.92 in 10.0 mi WNW 12.7 mph 19.6 mph N/A   Overcast
1:55 PM 37.4 °F 28.9 °F 19.4 °F 48% 29.92 in 10.0 mi WNW 13.8 mph 17.3 mph N/A   Overcast
2:15 PM 37.4 °F 28.5 °F 21.2 °F 52% 29.92 in 10.0 mi West 15.0 mph 20.7 mph N/A   Overcast
2:35 PM 37.4 °F 28.9 °F 19.4 °F 48% 29.91 in 10.0 mi WNW 13.8 mph 21.9 mph N/A   Overcast
2:55 PM 37.4 °F 27.8 °F 19.4 °F 48% 29.91 in 10.0 mi West 17.3 mph 21.9 mph N/A   Overcast
3:15 PM 37.4 °F 30.3 °F 19.4 °F 48% 29.92 in 10.0 mi WNW 10.4 mph 24.2 mph N/A   Overcast
3:35 PM 37.4 °F 28.5 °F 19.4 °F 48% 29.92 in 10.0 mi WNW 15.0 mph 23.0 mph N/A   Overcast
3:55 PM 37.4 °F 29.8 °F 19.4 °F 48% 29.92 in 10.0 mi WNW 11.5 mph 18.4 mph N/A   Overcast
4:15 PM 37.4 °F 28.2 °F 19.4 °F 48% 29.92 in 10.0 mi WNW 16.1 mph 19.6 mph N/A   Overcast
4:35 PM 37.4 °F 29.3 °F 19.4 °F 48% 29.92 in 10.0 mi WNW 12.7 mph 20.7 mph N/A   Overcast
4:55 PM 37.4 °F 28.2 °F 19.4 °F 48% 29.92 in 10.0 mi WNW 16.1 mph 21.9 mph N/A   Overcast
5:15 PM 37.4 °F 29.3 °F 19.4 °F 48% 29.92 in 10.0 mi WNW 12.7 mph 18.4 mph N/A   Mostly Cloudy
5:35 PM 37.4 °F 30.3 °F 21.2 °F 52% 29.93 in 10.0 mi WNW 10.4 mph - N/A   Scattered Clouds
5:55 PM 37.4 °F 29.3 °F 21.2 °F 52% 29.93 in 10.0 mi WNW 12.7 mph 17.3 mph N/A   Mostly Cloudy
6:15 PM 37.4 °F 29.8 °F 21.2 °F 52% 29.93 in 10.0 mi WNW 11.5 mph 16.1 mph N/A   Overcast
6:35 PM 37.4 °F 32.8 °F 21.2 °F 52% 29.93 in 10.0 mi WNW 5.8 mph - N/A   Overcast
6:55 PM 37.4 °F 32.1 °F 23.0 °F 56% 29.93 in 10.0 mi WNW 6.9 mph - N/A   Overcast
7:15 PM 37.4 °F 32.1 °F 23.0 °F 56% 29.93 in 10.0 mi WNW 6.9 mph - N/A   Overcast
7:35 PM 37.4 °F 32.1 °F 21.2 °F 52% 29.93 in 10.0 mi WNW 6.9 mph - N/A   Overcast
7:54 PM 35.6 °F 31.7 °F 23.0 °F 60% 29.94 in 10.0 mi West 4.6 mph - N/A   Mostly Cloudy
8:15 PM 33.8 °F 29.6 °F 24.8 °F 70% 29.94 in 10.0 mi West 4.6 mph - N/A   Scattered Clouds
8:35 PM 33.8 °F 30.8 °F 24.8 °F 70% 29.94 in 10.0 mi WNW 3.5 mph - N/A   Clear
8:54 PM 32.0 °F - 24.8 °F 75% 29.94 in 10.0 mi Calm Calm - N/A   Clear
9:15 PM 30.2 °F - 24.8 °F 80% 29.94 in 10.0 mi Calm Calm - N/A   Clear
9:35 PM 30.2 °F - 24.8 °F 80% 29.95 in 10.0 mi Calm Calm - N/A   Clear
9:55 PM 30.2 °F - 24.8 °F 80% 29.95 in 10.0 mi Calm Calm - N/A   Clear
10:15 PM 28.4 °F 24.6 °F 24.8 °F 86% 29.95 in 10.0 mi WNW 3.5 mph - N/A   Clear
10:35 PM 28.4 °F - 24.8 °F 86% 29.95 in 10.0 mi Calm Calm - N/A   Clear
10:55 PM 26.6 °F - 23.0 °F 86% 29.94 in 10.0 mi Calm Calm - N/A   Clear
11:15 PM 26.6 °F - 24.8 °F 93% 29.94 in 10.0 mi Calm Calm - N/A   Clear
11:35 PM 26.6 °F - 24.8 °F 93% 29.94 in 10.0 mi Calm Calm - N/A   Clear
11:55 PM 26.6 °F - 24.8 °F 93% 29.94 in 10.0 mi Calm Calm - N/A   Clear